[[{"header":{"parameterUnit":"m.s-1","parameterCategory":1,"la1":30.2991,"la2":30.254,"lo1":-89.0895,"lo2":-89.0444,"dy":0.0017,"dx":0.0017,"nx":28,"ny":28,"refTime":"2024-09-29T03:00:00:Z","depth":0,"parameterNumber":2,"parameterNumberName":"U-component_of_WINDS"},"data":[0,0,0,0,0,0,0,0,0,0,0,0,0,0,0,0,0,0,0,0,0,0,0,0,0,0,0,0,0,0,0,0,0,0,0,0,0,0,0,0,0,0,0,0,0,0,0,0,0,0,0,0,0,0,0,0,0,0,2.2572,2.2574,0,2.2695,2.2696,2.2698,2.2722,2.2721,2.272,2.2719,2.2843,2.2847,2.2851,0,0,0,0,0,0,0,0,0,0,0,0,0,2.2355,2.2359,2.2572,2.2574,2.2575,2.2695,2.2697,2.2698,2.2722,2.2721,2.272,2.2719,2.2841,2.2846,2.2851,0,0,0,0,0,0,0,0,0,0,0,0,0,2.2461,2.236,2.2572,2.2602,2.2606,2.2695,2.2697,2.2699,2.2723,2.2721,2.272,2.2718,2.284,2.2846,2.2852,2.2919,0,0,2.2871,2.2874,0,0,0,0,0,0,0,0,2.2455,2.2469,2.2596,2.26,2.2604,2.2692,2.2665,2.2772,2.2723,2.2678,2.2719,2.2718,2.2793,2.2803,2.2829,2.2925,2.293,2.2871,2.2875,2.2878,2.288,0,0,0,0,0,0,0,2.2448,2.2464,2.2621,2.2598,2.2603,2.2608,2.2621,2.2686,2.2742,2.2682,2.2684,2.2698,2.2795,2.2823,2.2832,2.2932,2.2871,2.2877,2.2881,2.2883,2.3086,2.3088,0,0,0,0,0,0,2.2435,2.2457,2.2617,2.2624,2.2525,2.2613,2.2628,2.2665,2.2742,2.2752,2.2699,2.2699,2.2813,2.2825,2.2837,2.2919,2.2878,2.2884,2.2887,2.3085,2.3087,2.3089,0,0,0,0,0,0,2.2431,2.2449,2.2612,2.2542,2.2563,2.2618,2.266,2.2668,2.2696,2.2755,2.2765,2.2718,2.2813,2.2828,2.2898,2.2924,2.2887,2.2892,2.3083,2.3085,2.3088,2.3084,0,0,0,0,0,0,2.2424,2.2447,2.2474,2.2542,2.2566,2.2672,2.2661,2.2672,2.2707,2.2708,2.2775,2.2784,2.2813,2.2889,2.2904,2.2932,2.2897,2.3081,2.3084,2.3087,2.3082,2.3086,2.309,0,0,0,0,0,2.2416,2.2468,2.2475,2.2494,2.2601,2.2673,2.2687,2.272,2.2709,2.2736,2.2773,2.2782,2.2919,2.2896,2.2913,2.2943,2.3079,2.3083,2.3087,2.3081,2.3086,2.309,0,0,0,0,0,0,2.2401,2.2478,2.2486,2.2562,2.2611,2.2677,2.2712,2.2724,2.2776,2.2774,2.2812,2.2827,2.2894,2.2926,2.2899,2.3011,2.2998,2.3006,2.2988,2.2993,2.2996,2.2987,2.2902,0,0,0,0,0,2.2407,2.246,2.2523,2.2584,2.2608,2.2656,2.2688,2.2709,2.2761,2.2782,2.2824,2.2874,2.2928,2.2962,2.3015,2.3088,2.3102,2.3117,2.3121,2.3123,2.3129,2.3168,2.3175,2.3101,2.3101,2.3101,0,0,2.2418,2.2467,2.2498,2.2582,2.2622,2.2675,2.2673,2.2729,2.2769,2.279,2.2858,2.2892,2.2949,2.302,2.3053,2.3048,2.3152,2.3128,2.313,2.3134,2.3172,2.3179,2.3185,2.3103,2.3103,2.3102,0,0,2.2466,2.2509,2.2563,2.2604,2.2665,2.2697,2.271,2.2774,2.2797,2.2867,2.2884,2.2931,2.3023,2.3063,2.3095,2.3158,2.3167,2.3174,2.3193,2.3231,2.3236,2.3242,2.3262,2.327,2.318,2.318,2.318,0,2.2472,2.2553,2.2589,2.2645,2.268,2.2704,2.2758,2.2795,2.2871,2.2894,2.2888,2.3004,2.3045,2.3124,2.314,2.3166,2.3181,2.3166,2.3233,2.3239,2.3244,2.3264,2.3272,2.318,2.318,2.318,2.318,0,2.2557,2.2613,2.265,2.2722,2.2763,2.2817,2.286,2.2896,2.2914,2.2945,2.3015,2.3064,2.3127,2.3148,2.3166,2.323,2.3225,2.3226,2.3213,2.3251,2.327,2.3278,2.3181,2.3181,2.318,2.318,0,0,2.2597,2.2689,2.2702,2.2735,2.2804,2.2848,2.2903,2.2965,2.2995,2.3046,2.3092,2.317,2.3171,2.3208,2.323,2.3263,2.3307,2.326,2.3261,2.3265,2.338,2.3377,2.3386,2.3315,2.3317,2.3318,2.3374,0,2.2652,2.2752,2.2786,2.2868,2.292,2.2942,2.299,2.3037,2.3069,2.3116,2.315,2.3204,2.3202,2.3224,2.3258,2.3295,2.3331,2.3292,2.3356,2.3358,2.3339,2.3396,2.3394,2.3445,2.3382,2.3384,2.3385,0,2.2729,2.2782,2.287,2.2932,2.2955,2.2997,2.3056,2.3102,2.3156,2.3176,2.3217,2.3237,2.3294,2.328,2.3358,2.3331,2.3359,2.3382,2.3384,2.339,2.3372,2.3402,2.3462,2.3469,2.3397,2.3396,2.3395,0,2.2747,2.284,2.2905,2.2932,2.3007,2.3036,2.3069,2.3121,2.3156,2.3208,2.323,2.3288,2.3319,2.3362,2.3396,2.3383,2.3471,2.346,2.3488,2.3487,2.3504,2.3502,2.3568,2.3526,2.3526,2.3526,2.3525,0,2.2804,2.2856,2.2914,2.2953,2.3012,2.305,2.3107,2.314,2.3187,2.3232,2.3255,2.3297,2.3341,2.3388,2.3415,2.3475,2.3489,2.3506,2.3512,2.3503,2.3501,2.3521,2.3518,2.3528,2.3527,2.3527,2.3527,0,2.2833,2.2874,2.2945,2.3011,2.3028,2.3069,2.3124,2.3162,2.3195,2.3252,2.3267,2.3317,2.3374,2.3413,2.3486,2.3504,2.3568,2.3575,2.355,2.3553,2.3578,2.3574,2.3658,2.367,2.3621,2.3622,2.3622,0,2.2865,2.2906,2.2976,2.3008,2.3041,2.3093,2.3129,2.3167,2.3204,2.3268,2.3298,2.3356,2.3405,2.3494,2.3537,2.3592,2.3599,2.3625,2.3607,2.3596,2.3597,2.3594,2.3597,2.3626,2.3627,2.3627,2.3627,0,2.2918,2.2936,2.2987,2.3046,2.3088,2.3135,2.3183,2.3208,2.3255,2.3294,2.3353,2.339,2.3465,2.3522,2.3581,2.3614,2.3628,2.3633,2.3642,2.3632,2.3615,2.3622,2.3555,2.363,2.363,2.363,2.363,2.3629,2.2949,2.2985,2.304,2.3096,2.3136,2.318,2.3219,2.3256,2.3306,2.337,2.339,2.345,2.3502,2.3583,2.3617,2.3664,2.3662,2.3675,2.3678,2.3681,2.3679,2.3609,2.3675,2.3675,2.3675,2.3675,2.3675,0,2.3001,2.3037,2.3088,2.3154,2.3198,2.3209,2.3262,2.3298,2.3351,2.3398,2.3446,2.3512,2.3568,2.3615,2.3672,2.3701,2.3708,2.3714,2.3711,2.3718,2.3679,2.3664,2.3707,2.3707,2.3707,2.3707,2.3707,2.3707,2.3033,2.3095,2.312,2.3202,2.3238,2.3298,2.3327,2.3367,2.3405,2.3478,2.3525,2.3556,2.3603,2.3663,2.3714,2.3727,2.3746,2.3749,2.3763,2.3725,2.3721,2.3718,2.3704,2.3754,2.3754,2.3798,2.3798,2.3799]},{"header":{"parameterUnit":"m.s-1","parameterCategory":1,"la1":30.2991,"la2":30.254,"lo1":-89.0895,"lo2":-89.0444,"dy":0.0017,"dx":0.0017,"nx":28,"ny":28,"refTime":"2024-09-29T03:00:00:Z","depth":0,"parameterNumber":3,"parameterNumberName":"V-component_of_WINDS"},"data":[0,0,0,0,0,0,0,0,0,0,0,0,0,0,0,0,0,0,0,0,0,0,0,0,0,0,0,0,0,0,0,0,0,0,0,0,0,0,0,0,0,0,0,0,0,0,0,0,0,0,0,0,0,0,0,0,0,0,2.0483,2.0483,0,2.0495,2.0495,2.0495,2.0459,2.0458,2.0457,2.0456,2.0467,2.0469,2.047,0,0,0,0,0,0,0,0,0,0,0,0,0,2.0427,2.0428,2.0483,2.0483,2.0483,2.0495,2.0495,2.0495,2.0459,2.0458,2.0456,2.0455,2.0467,2.0468,2.047,0,0,0,0,0,0,0,0,0,0,0,0,0,2.0446,2.0428,2.0483,2.0466,2.0465,2.0495,2.0495,2.0495,2.0459,2.0458,2.0456,2.0454,2.0466,2.0468,2.047,2.0516,0,0,2.0476,2.0477,0,0,0,0,0,0,0,0,2.0445,2.0448,2.0469,2.0468,2.0466,2.0474,2.0479,2.0502,2.046,2.0462,2.0456,2.0454,2.0471,2.0472,2.0478,2.0516,2.0517,2.0477,2.0478,2.0479,2.0479,0,0,0,0,0,0,0,2.0444,2.0447,2.0487,2.0469,2.0467,2.0458,2.0459,2.0483,2.0475,2.0461,2.0459,2.0461,2.047,2.0476,2.0478,2.0517,2.0477,2.0478,2.048,2.048,2.0591,2.0593,0,0,0,0,0,0,2.0445,2.0447,2.0487,2.0488,2.0451,2.046,2.0461,2.0473,2.0475,2.0474,2.0462,2.0459,2.0474,2.0476,2.0478,2.0531,2.0479,2.0481,2.0482,2.059,2.0592,2.0594,0,0,0,0,0,0,2.0444,2.0449,2.0486,2.0466,2.047,2.0463,2.0476,2.0474,2.048,2.0475,2.0474,2.047,2.0472,2.0476,2.0506,2.0531,2.0481,2.0483,2.0588,2.059,2.0593,2.0636,0,0,0,0,0,0,2.0442,2.0448,2.0466,2.0467,2.0472,2.0515,2.0478,2.0475,2.0484,2.048,2.0483,2.0482,2.0471,2.0504,2.0508,2.0532,2.0485,2.0585,2.0589,2.0592,2.0633,2.064,2.0646,0,0,0,0,0,2.044,2.0478,2.0467,2.0472,2.0494,2.0516,2.0519,2.0507,2.0486,2.0504,2.05,2.0482,2.0527,2.0507,2.0512,2.0537,2.0584,2.0588,2.0592,2.063,2.0639,2.0646,0,0,0,0,0,0,2.0481,2.0478,2.0466,2.0505,2.0511,2.051,2.0532,2.0517,2.0529,2.0524,2.0508,2.0509,2.0543,2.0543,2.0521,2.058,2.0552,2.0557,2.0579,2.0588,2.0594,2.0593,2.0487,0,0,0,0,0,2.0494,2.0513,2.051,2.0545,2.0548,2.054,2.0549,2.0539,2.0544,2.0547,2.0545,2.0551,2.0566,2.0577,2.0591,2.0633,2.0632,2.0652,2.0659,2.0665,2.0669,2.069,2.0698,2.0606,2.0606,2.0606,0,0,2.0522,2.0523,2.0536,2.0553,2.0556,2.0575,2.0542,2.0564,2.0578,2.055,2.0579,2.0578,2.0583,2.0619,2.0635,2.0621,2.0694,2.067,2.0674,2.0676,2.0695,2.0703,2.0711,2.0609,2.0609,2.0608,0,0,2.0583,2.0586,2.0615,2.0619,2.0624,2.0618,2.0625,2.0626,2.0624,2.0653,2.0632,2.0648,2.0675,2.0679,2.0685,2.0746,2.0729,2.0751,2.0787,2.0807,2.0814,2.082,2.0841,2.0849,2.0755,2.0755,2.0756,0,2.0617,2.0646,2.0632,2.0655,2.0662,2.0637,2.0666,2.067,2.068,2.0685,2.0669,2.0702,2.0704,2.074,2.0754,2.076,2.0767,2.075,2.0814,2.082,2.0826,2.0846,2.0854,2.0758,2.0758,2.0757,2.0757,0,2.0687,2.0707,2.0729,2.0739,2.0749,2.0775,2.0764,2.0776,2.0764,2.076,2.0788,2.0789,2.0803,2.081,2.08,2.0845,2.0835,2.0817,2.0788,2.0838,2.0856,2.0863,2.0762,2.0761,2.076,2.0759,0,0,2.0774,2.0775,2.0783,2.0786,2.079,2.0805,2.0829,2.0842,2.0852,2.0859,2.0878,2.0901,2.0884,2.089,2.088,2.0898,2.0944,2.0877,2.0877,2.0889,2.0992,2.1006,2.1015,2.0933,2.0935,2.0936,2.0992,0,2.0833,2.0875,2.0862,2.0904,2.0921,2.0897,2.0918,2.0922,2.0918,2.0931,2.0927,2.0943,2.0919,2.0923,2.094,2.0935,2.0965,2.0931,2.095,2.0951,2.0949,2.1024,2.1039,2.1092,2.0999,2.1,2.1001,0,2.0908,2.0918,2.0961,2.096,2.0967,2.0986,2.0996,2.1009,2.1013,2.1009,2.1015,2.1001,2.1023,2.0994,2.1025,2.1002,2.1009,2.1008,2.101,2.1011,2.0979,2.1027,2.1108,2.1116,2.1012,2.1011,2.101,0,2.0966,2.099,2.1018,2.1022,2.1022,2.1036,2.1036,2.1038,2.1046,2.1055,2.106,2.1071,2.1077,2.1086,2.1074,2.1054,2.1106,2.1077,2.1103,2.1103,2.1114,2.1114,2.1198,2.112,2.112,2.112,2.112,0,2.1033,2.106,2.1044,2.1062,2.1091,2.1076,2.1105,2.1103,2.1104,2.112,2.11,2.1116,2.11,2.1114,2.1105,2.1131,2.1134,2.1131,2.1128,2.1132,2.1133,2.1136,2.1132,2.1122,2.1122,2.1121,2.1121,0,2.1103,2.1094,2.1123,2.112,2.112,2.1141,2.1139,2.1154,2.1148,2.1169,2.1173,2.1163,2.1178,2.1168,2.1183,2.1177,2.1211,2.1203,2.121,2.1207,2.1234,2.1231,2.1323,2.1333,2.125,2.125,2.1251,0,2.1147,2.1167,2.1166,2.1175,2.1176,2.1192,2.1199,2.1185,2.1194,2.1198,2.1213,2.1226,2.1236,2.1261,2.1256,2.1267,2.1259,2.129,2.1261,2.1264,2.1258,2.1257,2.1259,2.1296,2.1297,2.1298,2.1299,0,2.1224,2.1218,2.123,2.124,2.1249,2.1257,2.1262,2.1271,2.1256,2.1267,2.1282,2.1289,2.1304,2.1317,2.1326,2.1326,2.131,2.1308,2.1314,2.1319,2.1321,2.1319,2.1225,2.1306,2.1305,2.1305,2.1304,2.1304,2.1281,2.1297,2.1299,2.1312,2.1315,2.132,2.1334,2.1329,2.1342,2.1352,2.1343,2.1361,2.1362,2.1373,2.1375,2.1388,2.1375,2.1385,2.1387,2.1389,2.1393,2.132,2.139,2.1389,2.1389,2.1389,2.1389,0,2.1357,2.1356,2.1369,2.1376,2.1387,2.137,2.1375,2.1385,2.1401,2.1404,2.1413,2.143,2.1442,2.1437,2.1448,2.1459,2.1452,2.1463,2.1461,2.1461,2.1404,2.1397,2.1468,2.1468,2.1468,2.1468,2.1468,2.1468,2.1397,2.1423,2.1417,2.1443,2.1442,2.1459,2.1463,2.1468,2.147,2.1489,2.1499,2.1496,2.1495,2.1505,2.1516,2.1514,2.1518,2.1532,2.1527,2.1473,2.1466,2.1458,2.1451,2.1533,2.1533,2.1583,2.1583,2.1584]}]]